CAPE
nan nan nan nan nan nan nan nan nan nan nan nan nan nan nan nan nan nan nan nan nan nan nan nan nan nan nan nan nan nan 0 1 1 1 2 2 1 1 1 1 1 2 1 1 1 2 2 3 3 3 3 4 5 5 7 9 9 13 16 18 18 21 23 25 25 26 27 29 30 30 28 26 25 25 27 30 33 33 35 37 37 39 37 37 37 46
nan nan nan nan nan nan nan nan nan nan nan nan nan nan nan nan nan nan nan nan nan nan nan nan nan nan nan nan nan nan nan 0 0 0 0 0 1 1 0 1 1 1 1 1 1 1 2 2 2 2 2 3 4 4 6 8 8 11 15 17 17 19 22 24 24 27 28 29 28 28 26 24 25 25 27 31 35 35 37 38 38 41 41 44 44 51
nan nan nan nan nan nan nan nan nan nan nan nan nan nan nan nan nan nan nan nan nan nan nan nan nan nan nan nan nan nan nan nan nan nan 0 0 0 0 0 0 0 0 0 1 1 1 2 2 2 2 2 3 4 4 5 7 7 9 11 14 14 15 17 20 20 24 26 27 25 25 24 22 26 26 28 33 36 36 38 40 40 42 45 49 49 54
nan nan nan nan nan nan nan nan nan nan nan nan nan nan nan nan nan nan nan nan nan nan nan nan nan nan nan nan nan nan nan nan nan nan nan nan nan nan nan nan nan 0 0 0 0 0 1 2 2 2 2 2 3 3 4 5 5 7 9 10 10 12 14 16 16 21 22 22 21 21 22 24 27 27 31 33 35 35 38 41 41 46 49 52 52 56
nan nan nan nan nan nan nan nan nan nan nan nan nan nan nan nan nan nan nan nan nan nan nan nan nan nan nan nan nan nan nan nan nan nan nan nan nan nan nan nan nan nan nan nan nan 0 1 1 1 1 1 2 3 3 4 5 5 7 8 9 9 10 12 15 15 18 19 20 18 18 22 24 28 28 30 32 36 36 39 41 41 45 48 58 58 59
nan nan nan nan nan nan nan nan nan nan nan nan nan nan nan nan nan nan nan nan nan nan nan nan nan nan nan nan nan nan nan nan nan nan nan nan nan nan nan nan nan nan nan nan nan nan 0 1 1 1 1 1 3 3 4 5 5 6 8 9 9 10 11 15 15 17 18 20 21 21 22 24 26 26 29 32 35 35 40 41 41 46 49 60 60 62
nan nan nan nan nan nan nan nan nan nan nan nan nan nan nan nan nan nan nan nan nan nan nan nan nan nan nan nan nan nan nan nan nan nan nan nan nan nan nan nan nan nan nan nan nan nan 0 0 0 0 0 1 2 2 4 5 5 6 8 8 8 9 12 15 15 16 18 20 20 20 21 23 25 25 26 29 33 33 40 43 43 45 46 56 56 61
nan nan nan nan nan nan nan nan nan nan nan nan nan nan nan nan nan nan nan nan nan nan nan nan nan nan nan nan nan nan nan nan nan nan nan nan nan nan nan nan nan nan nan nan nan nan nan 0 0 0 0 0 1 1 2 5 5 6 7 8 8 9 13 14 14 16 17 18 18 18 19 21 21 21 23 25 29 29 35 41 41 45 48 48 48 56
nan nan nan nan nan nan nan nan nan nan nan nan nan nan nan nan nan nan nan nan nan nan nan nan nan nan nan nan nan nan nan nan nan nan nan nan nan nan nan nan nan nan nan nan nan nan nan 0 0 0 0 0 1 1 2 4 4 6 7 8 8 9 13 13 13 15 17 18 19 19 19 20 21 21 22 25 26 26 29 36 36 40 43 48 48 56
nan nan nan nan nan nan nan nan nan nan nan nan nan nan nan nan nan nan nan nan nan nan nan nan nan nan nan nan nan nan nan nan nan nan nan nan nan nan nan nan nan nan nan nan nan nan nan nan nan nan nan nan 0 0 2 3 3 6 7 8 8 10 12 13 13 14 17 18 18 18 19 20 21 21 22 24 27 27 27 30 30 33 41 45 45 54
nan nan nan nan nan nan nan nan nan nan nan nan nan nan nan nan nan nan nan nan nan nan nan nan nan nan nan nan nan nan nan nan nan nan nan nan nan nan nan nan nan nan nan nan nan nan nan nan nan nan nan nan nan nan 1 4 4 6 7 8 8 9 11 12 12 14 16 17 18 18 20 19 19 19 22 23 25 25 26 27 27 29 35 40 40 48
nan nan nan nan nan nan nan nan nan nan nan nan nan nan nan nan nan nan nan nan nan nan nan nan nan nan nan nan nan nan nan nan nan nan nan nan nan nan nan nan nan nan nan nan nan nan nan nan nan nan nan nan nan nan 1 2 2 6 7 8 8 9 10 12 12 14 16 16 16 16 17 18 20 20 23 22 24 24 24 25 25 26 29 34 34 41
nan nan nan nan nan nan nan nan nan nan nan nan nan nan nan nan nan nan nan nan nan nan nan nan nan nan nan nan nan nan nan nan nan nan nan nan nan nan nan nan nan nan nan nan nan nan nan nan nan nan nan nan nan nan 1 3 3 5 7 8 8 9 11 12 12 14 15 16 16 16 17 18 19 19 19 20 22 22 23 24 24 26 27 31 31 35
nan nan nan nan nan nan nan nan nan nan nan nan nan nan nan nan nan nan nan nan nan nan nan nan nan nan nan nan nan nan nan nan nan nan nan nan nan nan nan nan nan nan nan nan nan nan nan nan nan nan nan nan nan nan 0 4 4 5 7 7 7 9 11 13 13 14 15 14 15 15 16 16 17 17 18 19 20 20 21 22 22 24 25 29 29 31
nan nan nan nan nan nan nan nan nan nan nan nan nan nan nan nan nan nan nan nan nan nan nan nan nan nan nan nan nan nan nan nan nan nan nan nan nan nan nan nan nan nan nan nan nan nan nan nan nan nan nan nan nan nan nan 2 2 5 6 7 7 9 11 13 13 14 14 14 15 15 15 16 17 17 18 18 17 17 19 20 20 22 25 27 27 28
nan nan nan nan nan nan nan nan nan nan nan nan nan nan nan nan nan nan nan nan nan nan nan nan nan nan nan nan nan nan nan nan nan nan nan nan nan nan nan nan nan nan nan nan nan nan nan nan nan nan nan nan nan nan nan 2 2 4 5 6 6 8 9 12 12 14 14 13 14 14 15 15 15 15 15 17 17 17 17 19 19 20 24 24 24 25
nan nan nan nan nan nan nan nan nan nan nan nan nan nan nan nan nan nan nan nan nan nan nan nan nan nan nan nan nan nan nan nan nan nan nan nan nan nan nan nan nan nan nan nan nan nan nan nan nan nan nan nan nan nan nan 1 1 3 4 5 5 7 8 9 9 13 14 15 15 15 15 14 15 15 15 14 15 15 16 17 17 20 22 22 22 23
nan nan nan nan nan nan nan nan nan nan nan nan nan nan nan nan nan nan nan nan nan nan nan nan nan nan nan nan nan nan nan nan nan nan nan nan nan nan nan nan nan nan nan nan nan nan nan nan nan nan nan nan nan nan nan 1 1 2 3 5 5 7 8 8 8 10 11 13 14 14 15 16 15 15 15 14 15 15 15 16 16 19 20 22 22 22
nan nan nan nan nan nan nan nan nan nan nan nan nan nan nan nan nan nan nan nan nan nan nan nan nan nan nan nan nan nan nan nan nan nan nan nan nan nan nan nan nan nan nan nan nan nan nan nan nan nan nan nan nan nan nan 0 0 1 3 4 4 5 7 8 8 9 10 11 12 12 12 14 16 16 16 15 15 15 15 16 16 17 19 19 19 20
nan nan nan nan nan nan nan nan nan nan nan nan nan nan nan nan nan nan nan nan nan nan nan nan nan nan nan nan nan nan nan nan nan nan nan nan nan nan nan nan nan nan nan nan nan nan nan nan nan nan nan nan nan nan nan nan nan 1 2 3 3 4 6 6 6 7 8 8 9 9 11 12 13 13 15 16 15 15 15 15 15 17 17 18 18 20
nan nan nan nan nan nan nan nan nan nan nan nan nan nan nan nan nan nan nan nan nan nan nan nan nan nan nan nan nan nan nan nan nan nan nan nan nan nan nan nan nan nan nan nan nan nan nan nan nan nan nan nan nan nan nan nan nan 0 1 2 2 4 4 6 6 6 6 7 8 8 9 10 12 12 12 15 16 16 17 15 15 16 16 18 18 19
nan nan nan nan nan nan nan nan nan nan nan nan nan nan nan nan nan nan nan nan nan nan nan nan nan nan nan nan nan nan nan nan nan nan nan nan nan nan nan nan nan nan nan nan nan nan nan nan nan nan nan nan nan nan nan nan nan nan 0 1 1 2 4 4 4 5 6 7 8 8 8 10 11 11 12 14 15 15 16 16 16 16 16 17 17 18
nan nan nan nan nan nan nan nan nan nan nan nan nan nan nan nan nan nan nan nan nan nan nan nan nan nan nan nan nan nan nan nan nan nan nan nan nan nan nan nan nan nan nan nan nan nan nan nan nan nan nan nan nan nan nan nan nan nan nan 0 0 1 2 3 3 4 5 7 8 8 9 10 10 10 11 12 13 13 14 14 14 15 16 17 17 18
nan nan nan nan nan nan nan nan nan nan nan nan nan nan nan nan nan nan nan nan nan nan nan nan nan nan nan nan nan nan nan nan nan nan nan nan nan nan nan nan nan nan nan nan nan nan nan nan nan nan nan nan nan nan nan nan nan nan nan nan nan 0 1 2 2 3 4 5 7 7 8 9 10 10 11 11 12 12 14 14 14 14 16 16 16 14
nan nan nan nan nan nan nan nan nan nan nan nan nan nan nan nan nan nan nan nan nan nan nan nan nan nan nan nan nan nan nan nan nan nan nan nan nan nan nan nan nan nan nan nan nan nan nan nan nan nan nan nan nan nan nan nan nan nan nan nan nan nan 0 1 1 2 3 5 6 6 8 8 10 10 10 11 12 12 12 13 13 14 15 14 14 12
nan nan nan nan nan nan nan nan nan nan nan nan nan nan nan nan nan nan nan nan nan nan nan nan nan nan nan nan nan nan nan nan nan nan nan nan nan nan nan nan nan nan nan nan nan nan nan nan nan nan nan nan nan nan nan nan nan nan nan nan nan nan nan 0 0 1 2 4 5 5 7 8 8 8 10 10 11 11 12 13 13 14 14 12 12 9
nan nan nan nan nan nan 2 4 5 5 5 nan nan nan nan nan nan nan nan nan nan nan nan nan nan nan nan nan nan nan nan nan nan nan nan nan nan nan nan nan nan nan nan nan nan nan nan nan nan nan nan nan nan nan nan nan nan nan nan nan nan nan nan nan nan 0 1 3 4 4 5 7 8 8 9 9 10 10 11 13 13 14 14 11 11 8
4 2 2 4 4 4 2 0 nan nan 0 4 4 4 nan nan nan nan nan nan nan nan nan nan nan nan nan nan nan nan nan nan nan nan nan nan nan nan nan nan nan nan nan nan nan nan nan nan nan nan nan nan nan nan nan nan nan nan nan nan nan nan nan nan nan 0 0 1 2 2 4 5 6 6 8 8 9 9 10 11 11 13 12 6 6 1
1 1 2 nan nan nan nan nan nan nan nan 1 5 5 nan nan nan nan nan nan nan nan nan nan nan nan nan nan nan nan nan nan nan nan nan nan nan nan nan nan nan nan nan nan nan nan nan nan nan nan nan nan nan nan nan nan nan nan nan nan nan nan nan nan nan nan 0 0 1 1 2 4 4 4 5 7 8 8 9 11 11 12 9 4 4 0
nan nan nan nan nan nan nan nan nan nan nan 0 nan nan nan nan nan nan nan nan nan nan nan nan nan nan nan nan nan nan nan nan nan nan nan nan nan nan nan nan nan nan nan nan nan nan nan nan nan nan nan nan nan nan nan nan nan nan nan nan nan nan nan nan nan nan nan 0 1 1 1 2 3 3 4 5 7 7 8 10 10 9 3 1 1 0
nan nan nan nan nan nan nan nan nan nan nan 0 nan nan nan nan nan nan nan nan nan nan nan nan nan nan nan nan nan nan nan nan nan nan nan nan nan nan nan nan nan nan nan nan nan nan nan nan nan nan nan nan nan nan nan nan nan nan nan nan nan nan nan nan nan nan nan 0 0 0 1 1 2 2 2 4 6 6 7 9 9 8 1 nan nan nan
nan nan nan nan nan nan nan nan nan nan nan nan nan nan nan nan nan nan nan nan nan nan nan nan nan nan nan nan nan nan nan nan nan nan nan nan nan nan nan nan nan nan nan nan nan nan nan nan nan nan nan nan nan nan nan nan nan nan nan nan nan nan nan nan nan nan nan 0 0 0 0 0 1 1 1 2 3 3 4 6 6 7 nan nan nan nan
nan nan nan nan nan nan nan nan nan nan nan nan nan nan nan nan nan nan nan nan nan nan nan nan nan nan nan nan nan nan nan nan nan nan nan nan nan nan nan nan nan nan nan nan nan nan nan nan nan nan nan nan nan nan nan nan nan nan nan nan nan nan nan nan nan nan nan nan nan nan nan 0 1 1 1 2 2 2 4 5 5 6 5 nan nan nan
nan nan nan nan nan nan nan nan nan nan nan nan nan nan nan nan nan nan nan nan nan nan nan nan nan nan nan nan nan nan nan nan nan nan nan nan nan nan nan nan nan nan nan nan nan nan nan nan nan nan nan nan nan nan nan nan nan nan nan nan nan nan nan nan nan nan nan nan nan nan nan nan 0 0 1 1 2 2 3 4 4 5 5 1 1 nan
nan nan nan nan nan nan nan nan nan nan nan nan nan nan nan nan nan nan nan nan nan nan nan nan nan nan nan nan nan nan nan nan nan nan nan nan nan nan nan nan nan nan nan nan nan nan nan nan nan nan nan nan nan nan nan nan nan nan nan nan nan nan nan nan nan nan nan nan nan nan nan nan nan nan nan 1 2 2 3 2 2 2 3 6 6 4
nan nan nan nan nan nan nan nan nan nan nan nan nan nan nan nan nan nan nan nan nan nan nan nan nan nan nan nan nan nan nan nan nan nan nan nan nan nan nan nan nan nan nan nan nan nan nan nan nan nan nan nan nan nan nan nan nan nan nan nan nan nan nan nan nan nan nan nan nan nan nan nan nan nan nan 1 3 3 2 1 1 1 2 3 3 4
nan nan nan nan nan nan nan nan nan nan nan nan nan nan nan nan nan nan nan nan nan nan nan nan nan nan nan nan nan nan nan nan nan nan nan nan nan nan nan nan nan nan 0 0 0 nan nan nan nan nan nan nan nan nan nan nan nan nan nan nan nan nan nan nan nan nan nan nan nan nan nan nan nan nan nan 1 0 0 0 1 1 0 1 2 2 2
nan nan nan nan nan nan nan nan nan nan nan nan nan nan nan nan nan nan nan nan nan nan nan nan nan nan nan nan nan nan nan nan nan nan nan nan nan nan nan nan nan nan nan nan nan nan nan nan nan nan nan nan nan nan nan nan nan nan nan nan nan nan nan nan nan nan nan nan nan nan nan nan nan nan nan nan nan nan nan nan nan nan 1 1 1 1
nan nan nan nan nan nan nan nan nan nan nan nan nan nan nan nan nan nan nan nan nan nan nan nan nan nan nan nan nan nan nan nan nan nan nan nan nan nan nan nan nan nan nan nan nan nan nan nan nan nan nan nan nan nan nan nan nan nan nan nan nan nan nan nan nan nan nan nan nan nan nan nan nan nan nan nan nan nan nan nan nan nan nan nan nan nan
nan nan nan nan nan nan nan nan nan nan nan nan nan nan nan nan nan nan nan nan nan nan nan nan nan nan nan nan nan nan nan nan nan nan nan nan nan nan nan nan nan nan nan nan nan nan nan nan nan nan nan nan nan nan nan nan nan nan nan nan nan nan nan nan nan nan nan nan nan nan nan nan nan nan nan nan nan nan nan nan nan nan nan nan nan nan
nan nan nan nan nan nan nan nan nan nan nan nan nan nan nan nan nan nan nan nan nan nan nan nan nan nan nan nan nan nan nan nan nan nan nan nan nan nan nan nan nan nan nan nan nan nan nan nan nan nan nan nan nan nan nan nan nan nan nan nan nan nan nan nan nan nan nan nan nan nan nan nan nan nan nan nan nan nan nan nan nan nan nan nan nan nan
nan nan nan nan nan nan nan nan nan nan nan nan nan nan nan nan nan nan nan nan nan nan nan nan nan nan nan nan nan nan nan nan nan nan nan nan nan nan nan nan nan nan nan nan nan nan nan nan nan nan nan nan nan nan nan nan nan nan nan nan nan nan nan nan nan nan nan nan nan nan nan nan nan nan nan nan nan nan nan nan nan nan nan nan nan nan
nan nan nan nan nan nan nan nan nan nan nan nan nan nan nan nan nan nan nan nan nan nan nan nan nan nan nan nan nan nan nan nan nan nan nan nan nan nan nan nan nan nan nan nan nan nan nan nan nan nan nan nan nan nan nan nan nan nan nan nan nan nan nan nan nan nan nan nan nan nan nan nan nan nan nan nan nan nan nan nan nan 0 nan nan nan nan
nan nan nan nan nan nan nan nan nan nan nan nan nan nan nan nan nan nan nan nan nan nan nan nan nan nan nan nan nan nan nan nan nan nan nan nan nan nan nan nan nan nan nan nan nan nan nan nan nan nan nan nan nan nan nan nan nan nan nan nan nan nan nan nan nan nan nan nan nan nan nan nan nan nan nan nan nan nan nan nan nan nan nan nan nan nan
nan nan nan nan nan nan nan nan nan nan nan nan nan nan nan nan nan nan nan nan nan nan nan nan nan nan nan nan nan nan nan nan nan nan nan nan nan nan nan nan nan nan nan nan nan nan nan nan nan nan nan nan nan nan nan nan nan nan nan nan nan nan nan nan nan nan nan nan nan nan nan nan nan nan nan nan nan nan nan nan nan nan nan nan nan nan
nan nan nan nan nan nan nan nan nan nan nan nan nan nan nan nan nan nan nan nan nan nan nan nan nan nan nan nan nan nan nan nan nan nan nan nan nan nan nan nan nan nan nan nan nan nan nan nan nan nan nan nan nan nan nan nan nan nan nan nan nan nan nan nan nan nan nan nan nan nan nan nan nan nan nan nan nan nan nan nan nan nan nan nan nan nan
nan nan nan nan nan nan nan nan nan nan nan nan nan nan nan nan nan nan nan nan nan nan nan nan nan nan nan nan nan nan nan nan nan nan nan nan nan nan nan nan nan nan nan nan nan nan nan nan nan nan nan nan nan nan nan nan nan nan nan nan nan nan nan nan nan nan nan nan nan nan nan nan nan nan nan nan nan nan nan nan nan nan nan nan nan nan
nan nan nan nan nan nan nan nan nan nan nan nan nan nan nan nan nan nan nan nan nan nan nan nan nan nan nan nan nan nan nan nan nan nan nan nan nan nan nan nan nan nan nan nan nan nan nan nan nan nan nan nan nan nan nan nan nan nan nan nan nan nan nan nan nan nan nan nan nan nan nan nan nan nan nan nan nan nan nan nan nan nan nan nan nan nan
nan nan nan nan nan nan nan nan nan nan nan nan nan nan nan nan 0 0 nan nan nan nan nan nan nan nan nan nan nan nan nan nan nan nan nan nan nan nan nan nan nan nan nan nan nan nan nan nan nan nan nan nan nan nan nan nan nan nan nan nan nan nan nan nan nan nan nan nan nan nan nan nan nan nan nan nan nan nan nan nan nan nan nan nan nan nan
nan nan nan nan nan nan nan nan nan nan nan nan nan nan nan nan nan nan nan nan nan nan nan nan nan nan nan nan nan nan nan nan nan nan nan nan nan nan nan nan nan 0 nan nan nan nan nan nan nan nan nan nan nan nan nan nan nan nan nan nan nan nan nan nan nan nan nan nan nan nan nan nan nan nan 0 0 nan nan 0 nan nan nan nan nan nan nan
nan nan nan nan nan nan nan nan nan nan nan nan nan nan nan nan nan nan nan nan nan nan nan nan nan nan nan nan nan nan nan nan nan nan nan nan nan nan nan nan nan nan nan nan nan nan nan nan nan nan nan 0 nan nan nan nan nan nan nan nan nan nan nan nan nan nan nan nan nan nan nan nan nan nan nan nan 0 0 nan nan nan nan nan nan nan nan
CIN
nan nan nan nan nan nan nan nan nan nan nan nan nan nan nan nan nan nan nan nan nan nan nan nan nan nan nan nan nan nan -0 -0 -0 -0 -0 -0 -0 -0 -0 -0 -0 -0 -0 -0 -0 -0 -0 -0 -0 -0 -0 -0 -0 -0 -0 -0 -0 -0 -0 -0 -0 -0 -0 -0 -0 -0 -0 -0 -0 -0 -0 -0 -0 -0 -0 -0 -0 -0 -0 -0 -0 -0 -0 -0 -0 -0
nan nan nan nan nan nan nan nan nan nan nan nan nan nan nan nan nan nan nan nan nan nan nan nan nan nan nan nan nan nan nan -0 -0 -0 -0 -0 -0 -0 -0 -0 -0 -0 -0 -0 -0 -0 -0 -0 -0 -0 -0 -0 -0 -0 -0 -0 -0 -0 -0 -0 -0 -0 -0 -0 -0 -0 -0 -0 -0 -0 -0 -0 -0 -0 -0 -0 -0 -0 -0 -0 -0 -0 -0 -0 -0 -0
nan nan nan nan nan nan nan nan nan nan nan nan nan nan nan nan nan nan nan nan nan nan nan nan nan nan nan nan nan nan nan nan nan nan -0 -0 -0 -0 -0 -0 -0 -0 -0 -0 -0 -0 -0 -0 -0 -0 -0 -0 -0 -0 -0 -0 -0 -0 -0 -0 -0 -0 -0 -0 -0 -0 -0 -0 -0 -0 -0 -0 -0 -0 -0 -0 -0 -0 -0 -0 -0 -0 -0 -0 -0 -0
nan nan nan nan nan nan nan nan nan nan nan nan nan nan nan nan nan nan nan nan nan nan nan nan nan nan nan nan nan nan nan nan nan nan nan nan nan nan nan nan nan -0 -0 -0 -0 -0 -0 -0 -0 -0 -0 -0 -0 -0 -0 -0 -0 -0 -0 -0 -0 -0 -0 -0 -0 -0 -0 -0 -0 -0 -0 -0 -0 -0 -0 -0 -0 -0 -0 -0 -0 -0 -0 -0 -0 -0
nan nan nan nan nan nan nan nan nan nan nan nan nan nan nan nan nan nan nan nan nan nan nan nan nan nan nan nan nan nan nan nan nan nan nan nan nan nan nan nan nan nan nan nan nan -0 -0 -0 -0 -0 -0 -0 -0 -0 -0 -0 -0 -0 -0 -0 -0 -0 -0 -0 -0 -0 -0 -0 -0 -0 -0 -0 -0 -0 -0 -0 -0 -0 -0 -0 -0 -0 -0 -0 -0 -0
nan nan nan nan nan nan nan nan nan nan nan nan nan nan nan nan nan nan nan nan nan nan nan nan nan nan nan nan nan nan nan nan nan nan nan nan nan nan nan nan nan nan nan nan nan nan -0 -0 -0 -0 -0 -0 -0 -0 -0 -0 -0 -0 -0 -0 -0 -0 -0 -0 -0 -0 -0 -0 -0 -0 -0 -0 -0 -0 -0 -0 -0 -0 -0 -0 -0 -0 -0 -0 -0 -0
nan nan nan nan nan nan nan nan nan nan nan nan nan nan nan nan nan nan nan nan nan nan nan nan nan nan nan nan nan nan nan nan nan nan nan nan nan nan nan nan nan nan nan nan nan nan -0 -0 -0 -0 -0 -0 -0 -0 -0 -0 -0 -0 -0 -0 -0 -0 -0 -0 -0 -0 -0 -0 -0 -0 -0 -0 -0 -0 -0 -0 -0 -0 -0 -0 -0 -0 -0 -0 -0 -0
nan nan nan nan nan nan nan nan nan nan nan nan nan nan nan nan nan nan nan nan nan nan nan nan nan nan nan nan nan nan nan nan nan nan nan nan nan nan nan nan nan nan nan nan nan nan nan -0 -0 -0 -0 -0 -0 -0 -0 -0 -0 -0 -0 -0 -0 -0 -0 -0 -0 -0 -0 -0 -0 -0 -0 -0 -0 -0 -0 -0 -0 -0 -0 -0 -0 -0 -0 -0 -0 -0
nan nan nan nan nan nan nan nan nan nan nan nan nan nan nan nan nan nan nan nan nan nan nan nan nan nan nan nan nan nan nan nan nan nan nan nan nan nan nan nan nan nan nan nan nan nan nan -0 -0 -0 -0 -0 -0 -0 -0 -0 -0 -0 -0 -0 -0 -0 -0 -0 -0 -0 -0 -0 -0 -0 -0 -0 -0 -0 -0 -0 -0 -0 -0 -0 -0 -0 -0 -0 -0 -0
nan nan nan nan nan nan nan nan nan nan nan nan nan nan nan nan nan nan nan nan nan nan nan nan nan nan nan nan nan nan nan nan nan nan nan nan nan nan nan nan nan nan nan nan nan nan nan nan nan nan nan nan -0 -0 -0 -0 -0 -0 -0 -0 -0 -0 -0 -0 -0 -0 -0 -0 -0 -0 -0 -0 -0 -0 -0 -0 -0 -0 -0 -0 -0 -0 -0 -0 -0 -0
nan nan nan nan nan nan nan nan nan nan nan nan nan nan nan nan nan nan nan nan nan nan nan nan nan nan nan nan nan nan nan nan nan nan nan nan nan nan nan nan nan nan nan nan nan nan nan nan nan nan nan nan nan nan -0 -0 -0 -0 -0 -0 -0 -0 -0 -0 -0 -0 -0 -0 -0 -0 -0 -0 -0 -0 -0 -0 -0 -0 -0 -0 -0 -0 -0 -0 -0 -0
nan nan nan nan nan nan nan nan nan nan nan nan nan nan nan nan nan nan nan nan nan nan nan nan nan nan nan nan nan nan nan nan nan nan nan nan nan nan nan nan nan nan nan nan nan nan nan nan nan nan nan nan nan nan -0 -0 -0 -0 -0 -0 -0 -0 -0 -0 -0 -0 -0 -0 -0 -0 -0 -0 -0 -0 -0 -0 -0 -0 -0 -0 -0 -0 -0 -0 -0 -0
nan nan nan nan nan nan nan nan nan nan nan nan nan nan nan nan nan nan nan nan nan nan nan nan nan nan nan nan nan nan nan nan nan nan nan nan nan nan nan nan nan nan nan nan nan nan nan nan nan nan nan nan nan nan -0 -0 -0 -0 -0 -0 -0 -0 -0 -0 -0 -0 -0 -0 -0 -0 -0 -0 -0 -0 -0 -0 -0 -0 -0 -0 -0 -0 -0 -0 -0 -0
nan nan nan nan nan nan nan nan nan nan nan nan nan nan nan nan nan nan nan nan nan nan nan nan nan nan nan nan nan nan nan nan nan nan nan nan nan nan nan nan nan nan nan nan nan nan nan nan nan nan nan nan nan nan -0 -0 -0 -0 -0 -0 -0 -0 -0 -0 -0 -0 -0 -0 -0 -0 -0 -0 -0 -0 -0 -0 -0 -0 -0 -0 -0 -0 -0 -0 -0 -0
nan nan nan nan nan nan nan nan nan nan nan nan nan nan nan nan nan nan nan nan nan nan nan nan nan nan nan nan nan nan nan nan nan nan nan nan nan nan nan nan nan nan nan nan nan nan nan nan nan nan nan nan nan nan nan -0 -0 -0 -0 -0 -0 -0 -0 -0 -0 -0 -0 -0 -0 -0 -0 -0 -0 -0 -0 -0 -0 -0 -0 -0 -0 -0 -0 -0 -0 -0
nan nan nan nan nan nan nan nan nan nan nan nan nan nan nan nan nan nan nan nan nan nan nan nan nan nan nan nan nan nan nan nan nan nan nan nan nan nan nan nan nan nan nan nan nan nan nan nan nan nan nan nan nan nan nan -0 -0 -0 -0 -0 -0 -0 -0 -0 -0 -0 -0 -0 -0 -0 -0 -0 -0 -0 -0 -0 -0 -0 -0 -0 -0 -0 -0 -0 -0 -0
nan nan nan nan nan nan nan nan nan nan nan nan nan nan nan nan nan nan nan nan nan nan nan nan nan nan nan nan nan nan nan nan nan nan nan nan nan nan nan nan nan nan nan nan nan nan nan nan nan nan nan nan nan nan nan -0 -0 -0 -0 -0 -0 -0 -0 -0 -0 -0 -0 -0 -0 -0 -0 -0 -0 -0 -0 -0 -0 -0 -0 -0 -0 -0 -0 -0 -0 -0
nan nan nan nan nan nan nan nan nan nan nan nan nan nan nan nan nan nan nan nan nan nan nan nan nan nan nan nan nan nan nan nan nan nan nan nan nan nan nan nan nan nan nan nan nan nan nan nan nan nan nan nan nan nan nan -0 -0 -0 -0 -0 -0 -0 -0 -0 -0 -0 -0 -0 -0 -0 -0 -0 -0 -0 -0 -0 -0 -0 -0 -0 -0 -0 -0 -0 -0 -0
nan nan nan nan nan nan nan nan nan nan nan nan nan nan nan nan nan nan nan nan nan nan nan nan nan nan nan nan nan nan nan nan nan nan nan nan nan nan nan nan nan nan nan nan nan nan nan nan nan nan nan nan nan nan nan -0 -0 -0 -0 -0 -0 -0 -0 -0 -0 -0 -0 -0 -0 -0 -0 -0 -0 -0 -0 -0 -0 -0 -0 -0 -0 -0 -0 -0 -0 -0
nan nan nan nan nan nan nan nan nan nan nan nan nan nan nan nan nan nan nan nan nan nan nan nan nan nan nan nan nan nan nan nan nan nan nan nan nan nan nan nan nan nan nan nan nan nan nan nan nan nan nan nan nan nan nan nan nan -0 -0 -0 -0 -0 -0 -0 -0 -0 -0 -0 -0 -0 -0 -0 -0 -0 -0 -0 -0 -0 -0 -0 -0 -0 -0 -0 -0 -0
nan nan nan nan nan nan nan nan nan nan nan nan nan nan nan nan nan nan nan nan nan nan nan nan nan nan nan nan nan nan nan nan nan nan nan nan nan nan nan nan nan nan nan nan nan nan nan nan nan nan nan nan nan nan nan nan nan -0 -0 -0 -0 -0 -0 -0 -0 -0 -0 -0 -0 -0 -0 -0 -0 -0 -0 -0 -0 -0 -0 -0 -0 -0 -0 -0 -0 -0
nan nan nan nan nan nan nan nan nan nan nan nan nan nan nan nan nan nan nan nan nan nan nan nan nan nan nan nan nan nan nan nan nan nan nan nan nan nan nan nan nan nan nan nan nan nan nan nan nan nan nan nan nan nan nan nan nan nan -0 -0 -0 -0 -0 -0 -0 -0 -0 -0 -0 -0 -0 -0 -0 -0 -0 -0 -0 -0 -0 -0 -0 -0 -0 -0 -0 -0
nan nan nan nan nan nan nan nan nan nan nan nan nan nan nan nan nan nan nan nan nan nan nan nan nan nan nan nan nan nan nan nan nan nan nan nan nan nan nan nan nan nan nan nan nan nan nan nan nan nan nan nan nan nan nan nan nan nan nan -0 -0 -0 -0 -0 -0 -0 -0 -0 -0 -0 -0 -0 -0 -0 -0 -0 -0 -0 -0 -0 -0 -0 -0 -0 -0 -0
nan nan nan nan nan nan nan nan nan nan nan nan nan nan nan nan nan nan nan nan nan nan nan nan nan nan nan nan nan nan nan nan nan nan nan nan nan nan nan nan nan nan nan nan nan nan nan nan nan nan nan nan nan nan nan nan nan nan nan nan nan -0 -0 -0 -0 -0 -0 -0 -0 -0 -0 -0 -0 -0 -0 -0 -0 -0 -0 -0 -0 -0 -0 -0 -0 -0
nan nan nan nan nan nan nan nan nan nan nan nan nan nan nan nan nan nan nan nan nan nan nan nan nan nan nan nan nan nan nan nan nan nan nan nan nan nan nan nan nan nan nan nan nan nan nan nan nan nan nan nan nan nan nan nan nan nan nan nan nan nan -0 -0 -0 -0 -0 -0 -0 -0 -0 -0 -0 -0 -0 -0 -0 -0 -0 -0 -0 -0 -0 -0 -0 -0
nan nan nan nan nan nan nan nan nan nan nan nan nan nan nan nan nan nan nan nan nan nan nan nan nan nan nan nan nan nan nan nan nan nan nan nan nan nan nan nan nan nan nan nan nan nan nan nan nan nan nan nan nan nan nan nan nan nan nan nan nan nan nan -0 -0 -0 -0 -0 -0 -0 -0 -0 -0 -0 -0 -0 -0 -0 -0 -0 -0 -0 -0 -0 -0 -0
nan nan nan nan nan nan -2 -0 -0 -0 -0 nan nan nan nan nan nan nan nan nan nan nan nan nan nan nan nan nan nan nan nan nan nan nan nan nan nan nan nan nan nan nan nan nan nan nan nan nan nan nan nan nan nan nan nan nan nan nan nan nan nan nan nan nan nan -0 -0 -0 -0 -0 -0 -0 -0 -0 -0 -0 -0 -0 -0 -0 -0 -0 -0 -0 -0 -0
-0 -0 -0 -0 -0 -0 -0 -0 nan nan -0 -0 -0 -0 nan nan nan nan nan nan nan nan nan nan nan nan nan nan nan nan nan nan nan nan nan nan nan nan nan nan nan nan nan nan nan nan nan nan nan nan nan nan nan nan nan nan nan nan nan nan nan nan nan nan nan -0 -0 -0 -0 -0 -0 -0 -0 -0 -0 -0 -0 -0 -0 -0 -0 -0 -0 -0 -0 -8
-1 -0 -0 nan nan nan nan nan nan nan nan -0 -0 -0 nan nan nan nan nan nan nan nan nan nan nan nan nan nan nan nan nan nan nan nan nan nan nan nan nan nan nan nan nan nan nan nan nan nan nan nan nan nan nan nan nan nan nan nan nan nan nan nan nan nan nan nan -0 -0 -0 -0 -0 -0 -0 -0 -0 -0 -0 -0 -0 -0 -0 -0 -0 -0 -0 -10
nan nan nan nan nan nan nan nan nan nan nan -0 nan nan nan nan nan nan nan nan nan nan nan nan nan nan nan nan nan nan nan nan nan nan nan nan nan nan nan nan nan nan nan nan nan nan nan nan nan nan nan nan nan nan nan nan nan nan nan nan nan nan nan nan nan nan nan -0 -0 -0 -0 -0 -0 -0 -0 -0 -0 -0 -0 -0 -0 -0 -3 -7 -7 -10
nan nan nan nan nan nan nan nan nan nan nan -0 nan nan nan nan nan nan nan nan nan nan nan nan nan nan nan nan nan nan nan nan nan nan nan nan nan nan nan nan nan nan nan nan nan nan nan nan nan nan nan nan nan nan nan nan nan nan nan nan nan nan nan nan nan nan nan -0 -0 -0 -0 -0 -0 -0 -0 -0 -0 -0 -0 -0 -0 -0 -10 nan nan nan
nan nan nan nan nan nan nan nan nan nan nan nan nan nan nan nan nan nan nan nan nan nan nan nan nan nan nan nan nan nan nan nan nan nan nan nan nan nan nan nan nan nan nan nan nan nan nan nan nan nan nan nan nan nan nan nan nan nan nan nan nan nan nan nan nan nan nan -0 -0 -0 -0 -0 -0 -0 -0 -0 -0 -0 -0 -0 -0 -0 nan nan nan nan
nan nan nan nan nan nan nan nan nan nan nan nan nan nan nan nan nan nan nan nan nan nan nan nan nan nan nan nan nan nan nan nan nan nan nan nan nan nan nan nan nan nan nan nan nan nan nan nan nan nan nan nan nan nan nan nan nan nan nan nan nan nan nan nan nan nan nan nan nan nan nan -0 -0 -0 -0 -0 -0 -0 -0 -0 -0 -0 -0 nan nan nan
nan nan nan nan nan nan nan nan nan nan nan nan nan nan nan nan nan nan nan nan nan nan nan nan nan nan nan nan nan nan nan nan nan nan nan nan nan nan nan nan nan nan nan nan nan nan nan nan nan nan nan nan nan nan nan nan nan nan nan nan nan nan nan nan nan nan nan nan nan nan nan nan -0 -0 -0 -0 -0 -0 -0 -0 -0 -0 -0 -0 -0 nan
nan nan nan nan nan nan nan nan nan nan nan nan nan nan nan nan nan nan nan nan nan nan nan nan nan nan nan nan nan nan nan nan nan nan nan nan nan nan nan nan nan nan nan nan nan nan nan nan nan nan nan nan nan nan nan nan nan nan nan nan nan nan nan nan nan nan nan nan nan nan nan nan nan nan nan -0 -0 -0 -0 -0 -0 -0 -0 -0 -0 -0
nan nan nan nan nan nan nan nan nan nan nan nan nan nan nan nan nan nan nan nan nan nan nan nan nan nan nan nan nan nan nan nan nan nan nan nan nan nan nan nan nan nan nan nan nan nan nan nan nan nan nan nan nan nan nan nan nan nan nan nan nan nan nan nan nan nan nan nan nan nan nan nan nan nan nan -0 -0 -0 -0 -0 -0 -0 -0 -0 -0 -0
nan nan nan nan nan nan nan nan nan nan nan nan nan nan nan nan nan nan nan nan nan nan nan nan nan nan nan nan nan nan nan nan nan nan nan nan nan nan nan nan nan nan -1 -0 -0 nan nan nan nan nan nan nan nan nan nan nan nan nan nan nan nan nan nan nan nan nan nan nan nan nan nan nan nan nan nan -0 -0 -0 -0 -0 -0 -0 -0 -0 -0 -0
nan nan nan nan nan nan nan nan nan nan nan nan nan nan nan nan nan nan nan nan nan nan nan nan nan nan nan nan nan nan nan nan nan nan nan nan nan nan nan nan nan nan nan nan nan nan nan nan nan nan nan nan nan nan nan nan nan nan nan nan nan nan nan nan nan nan nan nan nan nan nan nan nan nan nan nan nan nan nan nan nan nan -0 -0 -0 -0
nan nan nan nan nan nan nan nan nan nan nan nan nan nan nan nan nan nan nan nan nan nan nan nan nan nan nan nan nan nan nan nan nan nan nan nan nan nan nan nan nan nan nan nan nan nan nan nan nan nan nan nan nan nan nan nan nan nan nan nan nan nan nan nan nan nan nan nan nan nan nan nan nan nan nan nan nan nan nan nan nan nan nan nan nan nan
nan nan nan nan nan nan nan nan nan nan nan nan nan nan nan nan nan nan nan nan nan nan nan nan nan nan nan nan nan nan nan nan nan nan nan nan nan nan nan nan nan nan nan nan nan nan nan nan nan nan nan nan nan nan nan nan nan nan nan nan nan nan nan nan nan nan nan nan nan nan nan nan nan nan nan nan nan nan nan nan nan nan nan nan nan nan
nan nan nan nan nan nan nan nan nan nan nan nan nan nan nan nan nan nan nan nan nan nan nan nan nan nan nan nan nan nan nan nan nan nan nan nan nan nan nan nan nan nan nan nan nan nan nan nan nan nan nan nan nan nan nan nan nan nan nan nan nan nan nan nan nan nan nan nan nan nan nan nan nan nan nan nan nan nan nan nan nan nan nan nan nan nan
nan nan nan nan nan nan nan nan nan nan nan nan nan nan nan nan nan nan nan nan nan nan nan nan nan nan nan nan nan nan nan nan nan nan nan nan nan nan nan nan nan nan nan nan nan nan nan nan nan nan nan nan nan nan nan nan nan nan nan nan nan nan nan nan nan nan nan nan nan nan nan nan nan nan nan nan nan nan nan nan nan nan nan nan nan nan
nan nan nan nan nan nan nan nan nan nan nan nan nan nan nan nan nan nan nan nan nan nan nan nan nan nan nan nan nan nan nan nan nan nan nan nan nan nan nan nan nan nan nan nan nan nan nan nan nan nan nan nan nan nan nan nan nan nan nan nan nan nan nan nan nan nan nan nan nan nan nan nan nan nan nan nan nan nan nan nan nan -0 nan nan nan nan
nan nan nan nan nan nan nan nan nan nan nan nan nan nan nan nan nan nan nan nan nan nan nan nan nan nan nan nan nan nan nan nan nan nan nan nan nan nan nan nan nan nan nan nan nan nan nan nan nan nan nan nan nan nan nan nan nan nan nan nan nan nan nan nan nan nan nan nan nan nan nan nan nan nan nan nan nan nan nan nan nan nan nan nan nan nan
nan nan nan nan nan nan nan nan nan nan nan nan nan nan nan nan nan nan nan nan nan nan nan nan nan nan nan nan nan nan nan nan nan nan nan nan nan nan nan nan nan nan nan nan nan nan nan nan nan nan nan nan nan nan nan nan nan nan nan nan nan nan nan nan nan nan nan nan nan nan nan nan nan nan nan nan nan nan nan nan nan nan nan nan nan nan
nan nan nan nan nan nan nan nan nan nan nan nan nan nan nan nan nan nan nan nan nan nan nan nan nan nan nan nan nan nan nan nan nan nan nan nan nan nan nan nan nan nan nan nan nan nan nan nan nan nan nan nan nan nan nan nan nan nan nan nan nan nan nan nan nan nan nan nan nan nan nan nan nan nan nan nan nan nan nan nan nan nan nan nan nan nan
nan nan nan nan nan nan nan nan nan nan nan nan nan nan nan nan nan nan nan nan nan nan nan nan nan nan nan nan nan nan nan nan nan nan nan nan nan nan nan nan nan nan nan nan nan nan nan nan nan nan nan nan nan nan nan nan nan nan nan nan nan nan nan nan nan nan nan nan nan nan nan nan nan nan nan nan nan nan nan nan nan nan nan nan nan nan
nan nan nan nan nan nan nan nan nan nan nan nan nan nan nan nan nan nan nan nan nan nan nan nan nan nan nan nan nan nan nan nan nan nan nan nan nan nan nan nan nan nan nan nan nan nan nan nan nan nan nan nan nan nan nan nan nan nan nan nan nan nan nan nan nan nan nan nan nan nan nan nan nan nan nan nan nan nan nan nan nan nan nan nan nan nan
nan nan nan nan nan nan nan nan nan nan nan nan nan nan nan nan -0 -0 nan nan nan nan nan nan nan nan nan nan nan nan nan nan nan nan nan nan nan nan nan nan nan nan nan nan nan nan nan nan nan nan nan nan nan nan nan nan nan nan nan nan nan nan nan nan nan nan nan nan nan nan nan nan nan nan nan nan nan nan nan nan nan nan nan nan nan nan
nan nan nan nan nan nan nan nan nan nan nan nan nan nan nan nan nan nan nan nan nan nan nan nan nan nan nan nan nan nan nan nan nan nan nan nan nan nan nan nan nan -8 nan nan nan nan nan nan nan nan nan nan nan nan nan nan nan nan nan nan nan nan nan nan nan nan nan nan nan nan nan nan nan nan -5 -3 nan nan -5 nan nan nan nan nan nan nan
nan nan nan nan nan nan nan nan nan nan nan nan nan nan nan nan nan nan nan nan nan nan nan nan nan nan nan nan nan nan nan nan nan nan nan nan nan nan nan nan nan nan nan nan nan nan nan nan nan nan nan -0 nan nan nan nan nan nan nan nan nan nan nan nan nan nan nan nan nan nan nan nan nan nan nan nan -4 -4 nan nan nan nan nan nan nan nan
Wind_Speed
1 1 1 2 2 2 2 3 3 3 3 3 3 3 4 4 5 5 7 6 6 5 5 5 5 6 7 9 10 10 10 10 10 10 10 10 10 10 10 10 10 10 10 10 10 11 11 11 11 11 11 11 12 12 12 12 12 13 13 13 13 13 14 14 14 14 15 15 15 15 15 15 16 16 16 16 16 17 17 17 17 18 18 18 18 18
1 1 1 2 2 2 2 2 2 3 3 3 3 3 3 3 4 4 5 5 5 5 4 5 5 6 6 7 9 10 10 10 10 10 10 10 10 10 10 10 10 10 10 10 10 10 11 11 11 11 11 11 11 11 12 12 12 12 13 13 13 13 13 14 14 14 15 15 15 15 15 15 15 16 16 16 17 17 17 17 17 18 18 18 18 18
2 1 1 2 2 2 2 2 2 2 2 2 2 2 2 3 3 3 3 4 4 4 4 4 4 5 6 7 8 10 10 10 10 10 10 10 10 10 10 10 10 10 10 10 10 10 11 11 11 11 11 11 11 11 11 11 12 12 12 12 12 13 13 13 14 14 14 14 15 15 15 15 15 16 16 16 17 17 17 17 17 18 18 18 18 19
2 2 2 1 2 2 2 1 1 1 1 1 1 2 2 3 3 3 2 2 3 3 3 3 3 4 4 5 7 9 11 10 10 10 10 10 10 10 10 10 10 10 10 10 10 10 11 11 11 11 11 11 11 11 11 11 11 11 12 12 12 12 13 13 13 14 14 14 14 14 15 15 15 15 16 16 16 17 17 17 17 18 18 18 19 19
1 2 1 1 2 2 2 1 1 1 2 2 2 2 2 2 2 2 2 2 3 3 3 3 3 3 3 4 6 9 11 11 10 10 10 10 10 10 10 10 10 10 10 10 10 10 10 11 11 11 10 10 10 10 11 11 11 11 11 12 12 12 12 13 13 14 14 14 14 14 15 15 15 15 16 16 16 17 17 17 17 18 18 18 18 19
1 1 1 1 1 2 2 2 2 2 2 2 2 2 2 1 1 2 2 3 3 3 2 2 2 2 2 3 6 9 10 10 11 11 11 10 10 10 10 10 10 11 10 10 10 10 10 11 11 10 10 10 10 10 10 11 11 11 11 11 12 12 12 13 13 13 14 14 14 14 14 15 15 15 15 16 16 16 17 17 17 17 18 18 18 19
1 1 1 1 1 1 2 2 2 2 2 2 2 2 2 2 2 2 2 2 2 2 2 2 2 2 2 3 6 8 8 9 10 10 10 11 11 10 10 10 11 11 11 11 10 10 10 11 11 10 10 10 10 10 10 11 11 11 11 11 12 12 12 13 13 13 14 14 14 14 14 15 15 15 15 15 16 16 17 17 17 17 18 18 18 18
2 1 2 2 2 2 2 2 2 2 2 2 2 3 3 2 2 2 2 2 2 2 2 2 2 2 2 3 4 5 5 6 6 7 8 9 9 10 10 10 11 11 11 11 11 10 10 11 11 10 10 10 10 10 10 11 11 11 11 11 12 12 12 13 13 13 14 14 14 14 14 15 15 15 15 15 16 16 16 17 17 17 17 18 18 18
3 2 2 1 2 2 2 2 2 2 2 2 2 2 3 3 2 2 2 2 2 2 2 2 2 2 2 2 3 3 5 5 4 4 5 5 6 7 8 9 10 10 11 11 11 11 10 11 11 11 10 10 10 10 10 11 11 11 11 11 11 12 12 13 13 13 14 14 14 14 14 15 15 15 15 15 15 16 16 16 17 17 17 17 18 18
3 3 2 1 1 2 2 2 1 2 2 2 2 2 3 2 2 2 3 3 2 2 1 1 1 2 2 2 3 3 4 5 6 7 7 7 7 7 8 8 8 9 11 11 11 11 11 11 11 11 11 10 10 10 10 11 11 11 11 11 11 12 12 13 13 13 14 14 14 14 14 15 15 15 15 15 15 15 16 16 16 16 17 17 17 18
3 2 2 2 1 1 2 1 0 1 2 2 2 2 3 3 3 3 3 3 3 3 2 1 1 1 1 2 3 3 3 3 5 6 7 8 8 8 8 8 8 8 10 10 10 10 11 11 11 11 11 11 11 10 11 11 11 11 11 11 11 12 12 13 13 14 14 14 14 14 14 15 15 15 15 15 15 15 15 16 16 16 16 17 17 17
2 2 2 2 1 1 1 1 1 1 2 2 2 3 3 2 2 2 2 2 2 3 3 2 1 1 1 1 2 2 2 3 3 4 4 5 5 5 5 6 6 7 7 8 8 9 10 11 11 11 11 11 11 11 11 11 11 11 11 11 12 12 12 13 13 14 14 14 14 14 14 14 15 15 15 15 15 15 15 15 16 16 16 17 17 17
1 1 2 1 1 1 1 1 1 2 2 2 2 2 1 1 1 1 2 0 1 2 2 2 2 1 1 1 1 2 2 2 3 3 3 3 3 3 3 3 3 3 4 4 5 6 8 9 10 11 11 11 11 11 11 11 11 11 12 12 12 12 13 13 13 14 14 14 14 14 14 14 14 15 15 15 15 15 15 15 16 16 16 17 17 17
2 2 2 2 1 1 1 1 1 1 1 1 1 1 1 0 0 1 1 1 2 2 2 1 2 2 2 1 1 1 1 2 3 3 3 3 2 2 1 2 2 2 2 2 3 4 6 7 7 7 10 10 11 11 11 11 11 12 12 12 12 12 13 13 13 14 14 14 14 14 14 14 14 15 15 15 15 15 15 16 16 16 16 17 17 17
2 2 3 2 1 1 1 1 1 1 1 1 1 1 1 0 0 1 1 1 2 2 2 2 2 2 2 2 1 1 1 2 3 3 4 3 2 1 0 1 2 2 2 2 3 4 5 4 4 4 6 8 9 10 10 10 11 12 12 12 13 13 13 13 13 14 14 14 14 14 14 14 14 15 15 15 15 15 15 16 16 16 16 17 17 17
2 2 3 2 2 1 1 1 1 1 1 1 1 1 1 0 0 0 1 0 1 2 2 2 2 3 3 2 1 1 1 2 3 3 4 4 2 1 1 1 2 3 3 3 3 4 4 3 3 4 5 8 10 11 11 11 11 12 12 13 13 13 13 13 13 14 14 14 14 14 14 14 15 15 15 15 15 15 15 16 16 16 17 17 17 17
2 2 3 3 2 1 1 1 1 1 1 1 1 1 2 2 1 1 1 0 0 1 1 2 2 2 3 3 2 1 1 2 3 3 3 3 3 1 1 0 1 3 3 3 3 4 4 3 3 4 5 8 10 12 12 12 12 12 13 13 13 13 13 13 14 14 14 14 14 14 15 15 15 15 15 15 15 15 16 16 16 16 17 17 17 18
1 2 3 3 2 2 1 1 1 1 1 1 1 1 1 2 2 2 2 1 1 1 1 1 1 0 1 2 2 2 0 2 2 3 3 3 3 2 0 0 1 2 3 4 4 4 3 3 3 4 6 10 12 12 12 12 12 12 13 13 13 13 13 14 14 14 14 14 14 15 15 15 15 15 15 15 15 15 16 16 16 17 17 17 18 18
2 2 2 3 2 2 2 2 2 2 2 2 2 2 1 1 1 1 1 1 1 1 1 1 1 1 2 2 3 2 1 1 1 2 3 3 3 2 1 1 1 2 3 4 4 4 4 3 5 7 10 12 13 12 12 12 12 13 13 13 13 14 14 14 14 14 14 14 15 15 15 15 15 15 15 15 16 16 16 16 17 17 17 18 18 18
3 2 2 3 3 2 2 2 3 3 3 3 3 2 2 1 1 1 1 1 2 2 2 2 2 2 2 3 3 2 1 1 1 1 2 2 2 2 2 1 2 2 3 4 4 3 4 3 4 7 10 11 12 12 12 12 12 13 13 14 14 14 14 14 14 14 15 15 15 15 15 15 15 15 16 16 16 16 16 16 17 17 18 18 18 19
3 2 3 3 3 3 2 3 3 4 4 4 3 3 2 2 2 2 2 2 1 1 1 1 2 2 2 3 3 2 1 2 2 1 1 2 2 2 1 1 1 2 3 4 4 3 3 3 4 5 7 10 11 11 11 12 12 13 14 14 14 14 14 14 15 15 15 15 15 15 15 15 15 15 16 16 16 16 16 17 17 17 18 18 19 19
3 3 3 3 4 3 3 4 4 5 5 5 4 3 2 2 2 2 2 2 2 2 2 2 3 3 2 3 3 2 1 1 1 0 0 1 2 2 2 1 1 2 3 3 3 3 3 3 4 5 8 10 11 11 11 11 12 13 14 14 14 15 15 15 15 15 15 16 16 16 16 16 16 16 16 16 16 17 17 17 17 18 18 19 19 19
3 3 3 3 3 3 3 3 4 4 5 5 4 3 3 3 3 3 3 3 2 2 2 2 2 2 2 2 2 2 1 1 1 2 1 0 2 2 2 1 1 2 3 3 3 4 4 4 4 5 7 10 11 11 10 11 12 13 14 15 15 15 15 15 15 16 16 16 16 16 16 16 16 16 16 16 16 17 17 17 18 18 19 19 19 19
3 3 3 3 3 3 2 3 3 3 4 4 4 3 3 3 3 3 3 2 2 2 1 0 1 1 2 2 2 2 1 1 1 2 2 0 2 2 2 2 2 3 4 3 3 4 4 4 4 5 5 8 10 10 10 11 12 14 14 15 15 15 15 15 16 16 16 16 16 16 16 16 16 16 16 16 17 17 17 18 18 18 19 19 19 19
3 3 3 4 4 5 4 4 4 4 4 4 3 3 2 2 2 3 3 2 2 2 2 2 2 2 2 2 3 2 2 1 1 2 2 0 2 2 2 2 2 3 4 3 3 3 4 4 4 4 4 6 7 8 9 10 12 14 15 15 15 15 15 16 16 16 16 17 17 17 17 17 16 17 17 17 17 17 18 18 18 19 19 19 18 18
4 5 5 6 7 8 8 8 7 6 6 5 4 3 2 2 2 2 2 2 2 2 3 2 2 1 2 2 2 3 2 1 1 1 2 0 1 3 3 2 2 3 5 4 4 3 4 4 4 3 3 3 5 6 8 10 12 14 14 15 15 15 15 16 16 16 17 17 17 17 17 17 17 17 17 17 17 18 18 18 19 19 19 18 17 16
5 6 7 7 6 6 5 4 3 3 4 5 5 5 4 3 3 3 1 1 1 2 3 2 1 1 2 2 2 2 2 1 0 1 2 1 1 2 3 2 2 3 5 4 4 4 5 4 3 2 2 2 3 4 8 10 12 13 14 14 15 15 15 16 16 17 17 17 17 17 17 17 17 17 17 17 18 18 18 19 19 19 18 16 14 13
5 5 4 4 3 3 2 2 1 1 0 1 4 6 6 4 3 2 1 1 2 3 3 2 0 1 1 2 2 2 2 1 1 1 1 1 0 2 3 2 2 3 4 4 4 4 5 4 3 2 2 2 2 3 6 9 11 12 13 13 14 14 15 15 16 17 17 17 17 17 17 17 17 17 18 18 18 18 18 19 19 18 16 13 9 8
7 7 7 7 6 6 5 4 3 2 1 2 4 5 5 4 3 3 3 3 3 3 3 2 1 1 1 2 2 2 2 2 1 1 2 1 0 2 2 2 2 3 4 4 4 3 3 2 2 1 2 2 2 3 4 7 8 9 10 11 12 13 14 15 16 16 17 17 17 17 17 17 17 18 18 18 18 18 19 19 18 15 12 9 8 7
5 5 5 6 6 5 5 4 4 3 2 3 4 5 4 3 3 4 3 3 3 3 3 2 2 2 1 1 2 2 3 2 2 2 2 1 1 2 2 2 2 3 3 4 4 3 2 2 2 1 2 2 2 2 3 4 5 5 6 7 9 10 12 14 15 16 16 16 17 17 17 17 18 18 18 18 18 18 19 19 17 13 8 7 7 7
3 3 3 3 4 4 3 3 3 3 3 4 4 4 3 3 3 3 3 4 4 3 3 3 2 2 2 1 1 1 2 3 2 2 2 0 1 2 2 2 2 3 3 3 3 3 3 3 2 2 2 2 3 3 3 3 3 3 3 3 4 7 10 13 14 14 15 15 16 16 17 17 18 18 18 18 18 19 19 19 17 13 8 7 7 7
1 1 1 2 2 2 3 3 3 2 3 3 3 3 2 3 3 3 3 3 3 3 3 3 3 2 2 2 1 1 2 3 2 2 0 1 2 2 2 2 2 2 2 2 2 2 3 3 3 2 2 3 3 3 3 4 3 2 2 2 3 5 9 10 11 12 12 13 14 15 16 17 17 18 18 18 18 19 19 19 17 14 9 7 7 7
1 0 1 1 2 2 2 2 2 2 1 1 1 1 2 2 2 2 2 3 3 3 3 3 3 2 2 2 2 2 2 3 3 3 2 2 2 2 2 2 2 3 2 2 1 2 2 3 4 4 4 3 3 3 3 3 3 2 2 2 2 4 7 7 8 8 9 10 11 12 13 15 16 16 17 18 18 18 19 20 19 16 12 8 7 7
1 1 1 2 2 2 2 2 2 2 1 1 0 0 1 1 1 1 1 2 2 3 3 3 3 3 2 2 2 2 3 3 3 3 3 2 2 2 2 2 3 3 3 2 2 2 3 3 4 5 5 4 3 3 3 3 2 2 2 2 2 3 4 5 5 6 6 7 7 7 9 10 11 13 14 16 17 18 19 20 20 19 16 12 9 8
1 1 1 2 2 2 2 2 2 1 1 1 1 0 0 1 1 1 1 1 2 2 2 3 3 3 3 2 2 2 3 3 3 3 2 2 2 2 3 2 2 3 3 3 3 3 3 4 5 5 6 5 4 3 2 2 2 2 2 2 3 3 4 4 4 4 5 5 5 5 5 6 7 8 10 13 15 17 19 20 20 20 19 16 13 10
1 1 1 1 1 1 1 1 1 1 1 1 1 1 0 1 1 1 1 1 2 2 2 2 3 3 3 3 3 3 3 3 3 3 3 2 2 2 2 3 3 3 3 4 4 3 4 5 6 6 6 6 5 4 3 2 2 2 3 3 3 3 4 4 4 4 4 4 5 5 5 5 6 7 8 13 16 18 19 19 19 19 19 18 17 14
1 1 1 1 1 1 1 1 1 1 2 2 2 1 1 1 1 1 1 1 2 2 2 3 3 3 4 3 3 4 4 3 3 3 3 2 2 2 2 3 3 3 3 4 4 4 4 5 6 6 5 5 5 5 5 4 4 4 4 4 4 4 4 4 3 3 3 5 5 6 6 6 6 7 8 12 14 15 16 17 18 18 18 18 18 17
1 1 1 1 1 1 2 1 2 2 2 2 1 1 1 1 1 1 1 1 1 1 2 2 2 3 5 5 5 4 4 4 3 3 3 2 2 2 2 3 3 4 3 3 4 4 5 5 6 6 5 5 5 6 6 6 6 6 5 5 4 4 4 3 3 3 4 5 6 7 7 7 6 7 7 9 9 9 10 10 12 14 15 15 16 17
2 2 2 2 2 2 2 2 2 2 2 1 1 1 1 1 1 1 1 1 1 1 1 2 2 3 4 4 5 5 5 4 4 3 3 2 2 2 3 3 3 3 2 3 3 4 4 5 5 5 6 6 6 6 6 5 5 6 7 6 5 4 3 3 3 4 4 5 6 6 7 6 6 6 6 6 7 7 8 8 9 10 11 10 11 13
2 2 2 2 2 3 3 2 2 1 1 0 0 0 0 0 1 1 1 0 0 1 1 1 2 2 3 3 4 5 4 3 3 3 2 2 3 3 3 3 3 3 2 2 3 3 4 5 6 6 7 6 7 7 6 5 6 6 8 7 6 5 5 5 5 4 4 4 4 5 6 6 6 6 6 6 6 7 7 7 8 8 9 7 7 7
2 2 3 3 2 2 2 1 1 1 1 1 1 1 1 1 1 2 2 2 2 1 1 1 1 2 2 2 3 3 3 3 3 3 2 3 3 3 3 3 3 3 2 2 3 3 3 4 6 6 7 7 8 8 9 7 8 9 9 7 6 7 8 7 6 5 4 4 4 5 6 7 7 7 7 7 7 6 6 7 7 8 8 6 5 5
3 3 3 2 2 1 1 0 0 1 1 1 1 1 1 1 1 1 2 2 2 2 2 1 2 2 3 3 3 3 3 3 3 3 3 3 3 3 3 3 3 3 2 2 3 3 3 4 5 6 7 7 7 7 8 8 8 7 7 6 7 9 9 7 5 3 3 5 5 6 7 7 7 7 8 8 7 7 7 7 8 9 9 6 5 4
3 3 2 2 1 1 1 0 1 1 1 1 1 1 0 1 2 2 1 0 1 1 1 1 1 1 2 3 3 3 3 3 3 2 3 3 4 4 4 4 4 3 2 2 2 3 3 4 5 6 6 6 6 7 9 9 8 7 6 6 7 7 6 5 4 4 4 6 6 6 6 6 6 6 7 7 7 6 6 8 9 10 10 8 7 6
2 2 1 1 1 1 1 1 1 1 1 1 1 0 0 1 1 2 2 1 1 1 1 1 0 0 1 2 2 3 3 3 3 3 3 4 4 5 4 4 4 4 4 3 2 2 3 4 4 5 5 5 6 7 8 9 8 7 6 6 6 5 5 6 6 6 6 6 6 6 6 6 6 7 7 7 6 6 5 6 6 6 7 7 7 7
1 1 1 1 1 1 1 1 1 1 1 1 1 1 1 1 1 1 2 1 1 1 1 1 0 1 1 2 2 2 2 3 3 3 3 4 5 4 3 4 4 4 4 4 3 3 3 4 4 4 3 5 6 8 9 9 9 8 8 7 7 6 7 6 6 7 7 7 7 6 6 6 6 7 7 7 7 6 6 6 6 6 6 6 6 7
1 1 1 1 1 1 1 1 1 1 1 0 1 1 1 1 1 1 2 1 1 1 1 1 1 1 2 2 2 2 2 2 3 3 3 4 4 3 2 3 4 4 4 4 4 4 4 4 4 4 4 5 7 8 8 8 8 8 8 7 7 6 7 7 6 6 6 7 7 7 6 6 6 6 8 8 8 7 6 6 6 6 6 6 7 7
2 2 2 1 1 1 1 1 1 1 1 1 1 1 1 1 1 1 1 1 1 1 2 1 1 2 2 3 3 2 3 3 3 3 2 3 3 3 3 2 3 3 3 4 4 4 5 5 4 4 5 6 8 8 8 7 7 7 7 6 6 6 6 6 6 5 5 5 6 6 6 6 6 7 8 9 8 8 7 6 6 6 6 6 7 7
3 3 3 2 2 1 1 1 2 2 2 1 1 1 1 2 1 1 1 1 1 1 2 2 2 2 3 2 2 3 4 4 4 3 2 2 2 2 3 2 3 3 3 4 5 5 5 5 6 6 5 6 7 8 8 7 6 6 6 5 6 6 7 6 6 5 5 5 5 5 5 5 6 8 9 9 9 8 7 7 7 6 6 6 6 6
4 4 3 3 2 2 2 2 2 2 2 2 2 1 1 2 3 3 2 1 1 1 1 2 2 3 3 3 3 3 4 4 4 3 3 2 2 2 2 2 3 3 3 4 4 4 5 6 7 7 7 7 7 8 8 7 7 6 5 5 5 6 6 7 6 5 4 5 5 5 5 5 6 7 8 9 9 9 9 8 7 6 6 5 6 6
3 4 4 3 3 3 3 3 3 3 3 3 2 2 2 2 2 2 2 2 1 1 2 2 3 3 4 4 3 3 4 4 3 3 2 2 2 2 2 2 3 3 4 3 3 3 3 4 5 6 8 10 9 9 8 8 7 6 5 5 5 5 5 6 5 4 4 5 5 6 6 6 6 7 7 8 9 10 10 9 8 7 5 5 6 7
4 3 3 4 3 3 3 3 3 3 3 3 3 2 2 2 2 2 2 2 2 2 2 2 2 3 4 4 4 4 4 4 3 3 3 2 2 2 2 2 3 3 3 3 3 3 3 3 3 4 6 9 11 10 7 6 5 5 5 4 4 3 3 4 4 4 5 6 6 6 7 7 7 7 7 8 9 9 9 9 9 8 6 6 7 8
Wind_Direction
97 97 62 41 56 63 27 14 34 56 58 49 40 35 35 38 39 41 42 41 38 34 32 24 16 11 9 27 38 44 47 45 43 41 39 38 36 35 33 32 31 31 29 28 27 26 25 23 22 21 19 18 16 15 14 13 12 10 9 8 6 4 2 1 0 360 359 358 357 356 355 354 353 352 351 350 350 350 349 348 347 345 344 343 343 343
97 88 55 37 51 68 54 16 30 54 66 52 40 33 30 33 35 36 34 33 33 33 32 23 17 12 1 14 29 40 43 42 40 38 36 35 34 33 31 30 29 28 27 26 25 24 23 22 21 20 18 17 16 14 13 12 10 9 8 6 4 2 1 360 359 358 357 357 356 355 354 352 352 351 350 350 349 349 348 347 346 345 344 343 342 342
114 97 69 38 45 59 66 27 23 39 65 57 40 27 28 39 42 40 32 25 23 25 29 26 20 11 2 7 23 35 37 38 37 36 33 32 31 30 29 27 26 25 24 23 23 22 21 20 19 18 17 16 15 13 12 10 9 8 6 4 2 0 359 358 358 357 356 355 354 353 352 351 351 350 350 349 348 348 347 346 345 344 344 343 342 341
107 105 98 65 48 49 57 40 26 25 46 48 35 26 32 46 48 43 33 22 17 17 19 21 20 14 4 2 16 26 32 33 33 32 30 29 28 27 26 25 24 23 22 21 20 20 19 18 18 17 15 14 13 12 10 8 7 6 4 2 360 358 357 357 356 355 354 353 353 352 351 351 350 350 349 348 347 347 346 345 345 344 343 342 341 341
98 105 108 86 61 45 29 30 31 31 34 34 28 25 30 42 41 32 20 20 21 19 13 15 17 16 7 358 11 21 26 28 29 28 27 25 24 23 23 22 21 20 19 18 18 17 17 16 16 15 14 12 11 10 8 6 5 3 2 360 358 357 356 356 355 354 353 352 351 351 350 350 349 349 348 347 346 346 345 344 344 344 343 342 341 340
107 95 94 85 72 53 25 27 31 35 35 30 26 24 27 28 25 20 16 17 18 17 9 6 7 8 3 358 10 17 19 22 23 24 23 21 20 19 18 18 18 17 17 16 15 15 14 14 14 13 12 10 9 8 6 4 2 1 360 358 356 355 355 354 353 352 351 351 350 350 349 349 348 347 347 346 345 345 344 344 343 343 342 341 340 340
102 73 64 71 66 52 36 32 29 30 39 39 33 25 17 17 19 19 12 8 7 6 1 354 353 355 358 359 3 6 10 14 16 17 18 16 14 14 13 14 14 13 14 13 12 12 12 12 12 11 10 8 7 5 4 1 360 358 357 356 355 354 353 352 352 351 350 350 349 349 348 347 347 346 345 345 344 344 343 343 342 342 342 341 340 339
104 76 57 66 64 53 43 36 28 24 34 50 49 38 20 11 6 1 354 352 354 358 360 353 350 347 345 345 347 350 354 3 7 10 12 11 9 8 8 9 9 9 10 10 9 9 9 9 9 9 8 6 4 3 1 359 357 356 355 354 353 352 352 351 350 350 349 349 348 347 347 346 345 345 344 344 344 343 343 342 342 341 341 340 339 338
108 101 73 79 86 85 71 43 22 10 19 46 61 59 42 20 3 354 355 354 354 357 5 1 350 338 328 327 330 337 344 355 1 4 8 5 4 3 4 4 4 4 6 6 5 5 6 6 7 6 5 3 2 360 358 355 354 353 353 352 351 351 351 350 349 349 348 347 347 346 345 345 344 343 343 343 343 342 342 341 341 340 339 339 338 337
91 97 92 79 84 97 99 74 20 352 5 38 62 74 70 48 29 12 8 356 348 346 358 5 348 329 319 321 326 332 340 351 358 3 5 1 1 2 1 358 358 359 0 1 1 1 1 3 4 3 2 0 358 356 353 351 350 350 350 350 350 350 350 349 348 348 347 346 345 344 344 343 342 342 342 342 341 341 341 340 340 339 338 337 337 336
83 85 92 78 59 59 88 90 9 337 2 29 42 50 56 54 54 48 31 1 345 339 341 336 320 304 309 316 321 326 332 342 350 354 356 354 355 357 354 352 350 350 353 354 355 355 356 358 359 359 358 356 353 350 348 346 346 347 348 349 350 350 349 348 347 347 346 344 344 343 342 342 341 341 340 340 340 340 340 339 338 338 337 336 336 336
99 91 90 85 67 46 43 25 1 1 20 35 37 31 23 25 49 69 64 12 338 329 326 316 302 264 253 287 306 318 327 338 341 340 339 342 344 346 346 343 340 341 344 346 346 347 350 354 355 354 352 349 346 343 341 342 344 346 348 349 349 349 349 348 346 345 344 343 342 341 341 340 340 339 339 339 339 339 338 338 337 337 336 336 336 336
93 91 86 77 65 54 42 29 22 21 27 47 59 59 19 351 29 79 94 26 303 299 301 304 300 284 257 249 270 298 319 333 336 334 331 328 329 331 334 328 324 323 328 332 331 333 341 347 348 347 345 341 337 335 335 339 343 345 347 348 349 349 348 346 345 343 342 341 341 340 340 339 339 338 338 338 338 338 337 337 337 336 336 336 336 336
84 78 76 72 65 57 54 67 71 67 42 75 109 129 176 256 31 74 83 315 286 279 279 289 293 292 287 263 252 261 296 328 336 338 335 321 312 308 320 311 305 302 308 318 316 318 327 338 340 337 335 331 328 327 329 336 342 346 347 348 348 348 347 345 343 342 341 340 339 339 339 338 338 338 337 337 337 337 337 337 336 336 336 336 336 336
101 96 94 96 100 104 110 104 110 121 168 191 183 164 159 68 50 65 69 329 304 301 316 328 323 312 301 279 256 247 271 338 349 346 337 320 304 280 249 304 300 300 308 320 315 313 321 326 322 315 316 316 316 320 328 338 344 346 347 347 347 346 345 344 342 340 339 339 339 339 338 338 337 337 337 337 337 337 337 336 336 336 336 336 336 336
113 111 116 124 134 151 174 149 147 157 187 199 185 155 128 124 149 154 117 315 315 329 358 6 358 341 315 296 269 247 276 351 354 346 333 317 305 280 122 337 316 315 319 323 318 314 315 313 308 303 301 312 320 327 334 339 343 345 346 346 346 345 344 342 341 340 339 339 339 338 338 338 337 337 337 337 337 337 337 336 336 336 336 335 335 335
115 115 122 125 137 161 185 160 164 174 182 186 183 174 165 175 177 169 150 150 37 25 28 36 26 357 318 310 293 270 291 357 350 337 325 309 300 289 121 70 329 322 321 322 316 311 310 309 306 304 302 316 324 330 334 338 341 343 345 345 344 343 342 341 340 339 339 339 339 338 338 338 338 337 337 337 337 337 337 336 336 336 335 335 335 335
127 131 129 130 144 167 173 163 176 191 179 179 188 194 194 188 174 156 144 136 111 88 73 84 106 175 287 297 288 279 88 11 349 329 317 302 294 292 28 61 335 317 317 316 311 306 304 303 305 309 312 322 326 329 332 336 340 342 343 343 342 342 341 340 339 339 339 339 339 338 338 338 338 338 337 337 337 337 337 336 336 336 335 335 335 335
144 146 140 144 152 161 164 174 179 180 179 183 179 175 185 197 173 152 150 156 153 146 143 150 179 201 206 247 265 270 117 47 358 325 309 295 290 298 350 8 346 323 315 310 305 301 299 296 303 311 317 321 323 325 329 334 338 340 341 341 341 340 340 339 339 339 339 339 338 338 338 338 338 338 338 338 337 337 337 336 336 336 335 335 335 335
145 153 160 151 144 143 166 196 196 190 187 181 170 158 163 174 168 162 179 187 180 167 154 163 191 216 218 243 261 278 46 53 30 337 293 282 283 296 337 3 349 326 313 303 297 295 296 295 303 310 315 316 317 321 326 332 336 338 340 340 339 339 339 339 338 338 338 338 338 338 338 339 339 339 338 338 338 337 337 336 336 336 335 335 335 334
140 166 192 160 143 141 173 200 204 199 189 168 152 144 157 162 167 179 197 191 182 165 147 168 206 220 221 245 263 282 34 52 37 348 297 290 289 291 301 341 335 317 307 294 289 289 294 296 299 303 307 309 312 317 324 330 335 337 338 338 338 338 338 338 338 338 338 338 338 338 338 338 339 339 339 338 338 338 337 337 336 336 335 335 334 334
138 168 196 172 157 155 171 190 199 198 184 161 153 157 172 171 177 185 191 181 178 182 195 211 218 219 215 243 263 285 61 93 110 130 344 314 297 289 284 275 306 310 302 292 289 291 295 297 297 298 300 304 308 313 321 328 333 336 337 337 337 337 337 337 337 337 338 338 338 338 338 338 338 338 339 339 339 338 338 337 336 336 335 335 334 334
132 156 178 179 180 179 177 185 195 195 185 175 175 180 180 175 176 180 182 177 178 186 200 214 224 232 237 255 274 302 20 105 129 128 107 290 284 283 286 295 316 314 299 292 293 296 298 297 294 293 295 299 303 309 318 327 332 334 336 336 336 336 336 336 336 337 337 337 338 338 338 338 338 338 338 339 339 338 338 337 336 336 335 335 334 334
132 149 166 183 194 200 193 190 193 195 192 193 195 192 175 164 159 156 151 155 154 152 155 115 2 338 310 300 302 312 333 30 99 109 104 236 271 279 290 316 324 317 303 295 292 295 297 295 290 286 287 291 296 304 316 326 331 333 334 335 335 335 335 335 335 336 336 337 337 337 337 337 337 338 338 338 338 338 338 337 336 335 335 335 335 334
148 159 172 188 198 204 205 205 202 198 192 198 201 196 164 150 137 123 110 102 94 83 71 48 20 350 324 329 324 316 311 345 81 105 101 276 282 284 287 305 320 318 308 302 295 291 290 288 285 282 280 284 291 301 316 326 330 332 333 333 333 334 334 334 334 335 335 336 336 336 337 337 337 337 338 338 338 338 337 336 336 335 335 335 335 335
167 174 182 192 199 204 208 210 208 200 189 189 188 180 154 136 117 100 79 62 59 63 61 45 15 328 309 323 314 303 296 326 51 102 113 127 290 292 289 295 313 316 310 307 301 292 284 280 278 276 275 279 289 301 316 325 329 330 330 331 331 332 332 333 333 333 334 335 335 335 336 336 336 336 337 337 337 337 336 336 336 336 336 336 335 334
156 164 172 180 187 193 198 202 202 195 185 178 166 153 139 120 103 90 73 59 73 82 78 60 360 315 312 313 296 285 288 318 3 101 122 124 282 291 291 300 315 319 315 309 300 288 279 274 269 264 268 274 281 297 314 321 325 326 327 328 329 330 331 331 331 332 333 334 334 334 335 335 335 336 336 336 336 336 336 336 336 336 336 336 335 333
97 100 97 92 85 77 69 60 52 44 30 121 127 128 128 117 112 119 188 178 131 103 97 104 94 301 301 289 282 281 293 298 272 204 137 117 204 279 283 301 318 324 319 309 298 285 278 273 269 265 271 277 277 288 303 314 318 320 320 323 325 327 328 329 330 331 332 332 333 333 333 334 334 334 335 335 335 335 335 335 336 336 336 336 333 328
58 59 57 51 47 42 38 29 20 12 11 59 88 102 115 119 132 154 184 164 132 111 110 132 156 198 257 275 287 299 310 292 253 198 146 108 274 274 279 307 324 329 326 315 307 299 290 283 278 275 274 274 271 277 288 305 309 309 309 315 319 322 325 327 328 330 331 331 331 332 332 333 333 333 333 333 334 334 334 335 336 336 336 334 330 325
35 40 41 34 28 23 19 14 9 9 22 62 79 88 100 117 138 152 161 145 130 123 133 151 165 175 203 308 327 327 316 289 250 184 138 80 316 296 305 323 334 340 341 331 324 319 315 307 296 280 269 271 275 279 284 290 289 288 291 304 311 317 322 325 327 328 329 330 330 330 331 331 332 332 332 332 333 333 334 335 335 335 334 330 327 323
18 20 15 1 357 356 358 1 6 13 29 57 71 80 89 106 125 138 144 139 135 135 145 158 165 162 147 85 3 326 302 276 246 187 141 44 324 310 325 330 335 343 354 350 338 326 317 312 303 286 270 279 285 286 283 278 274 272 273 288 300 311 319 324 326 327 327 327 328 329 329 330 330 331 331 331 331 332 333 334 335 335 332 329 325 321
28 21 2 335 334 340 351 358 5 14 31 49 58 67 79 96 115 131 141 143 140 138 143 152 158 159 153 153 173 222 257 264 257 241 197 332 318 310 329 327 326 331 343 347 329 308 305 303 299 294 289 290 288 284 277 272 268 267 273 284 294 308 319 322 324 324 324 325 326 327 327 328 328 329 329 330 330 331 332 333 333 333 331 327 322 319
69 38 343 333 339 348 356 358 1 9 24 34 39 47 63 83 111 133 144 146 141 137 139 144 150 157 165 177 196 220 246 257 271 291 326 331 319 309 319 322 320 318 321 313 284 262 265 282 293 300 300 293 285 277 272 268 263 261 268 286 295 306 316 320 320 319 318 320 322 323 324 325 326 327 328 328 329 329 330 330 331 331 331 326 321 318
60 39 6 355 354 355 355 355 355 356 354 353 6 41 70 87 111 132 147 154 150 144 143 146 151 159 168 188 219 240 255 255 268 291 336 338 321 309 312 314 313 313 315 306 292 276 266 275 289 299 301 297 290 277 266 260 258 256 250 275 291 302 310 314 313 312 312 315 316 317 319 320 322 323 325 326 327 327 328 328 329 329 328 325 322 319
49 29 13 5 360 353 346 345 342 336 319 304 291 265 132 125 131 145 161 170 170 166 161 159 161 166 172 188 221 247 259 256 264 282 318 319 312 305 304 303 305 310 311 306 303 298 290 288 293 298 303 304 300 288 258 244 248 258 263 275 285 293 298 302 304 306 309 312 312 311 312 313 316 319 323 324 325 326 326 326 327 326 326 324 322 319
58 2 346 350 342 324 304 305 304 298 286 278 271 257 195 158 158 166 176 182 191 198 200 195 187 183 183 194 215 238 255 255 264 277 294 295 294 290 291 290 296 301 302 300 300 300 299 298 299 299 301 302 302 299 287 274 278 288 292 293 293 293 291 291 293 299 307 311 313 313 312 313 315 318 319 322 323 324 324 324 324 324 323 322 321 319
142 262 282 285 264 248 251 261 260 253 249 253 254 251 219 196 194 195 192 188 196 209 219 224 224 222 219 215 220 232 249 257 266 274 280 274 264 263 271 279 285 288 289 292 295 299 300 300 301 300 298 295 296 301 307 313 315 312 307 306 304 299 294 292 294 298 306 310 312 313 314 316 317 318 317 320 322 322 323 322 322 322 321 320 319 317
171 229 253 248 232 222 224 234 236 231 225 225 224 220 209 213 223 230 224 205 200 208 222 232 240 246 247 249 247 245 248 254 258 260 258 240 228 232 250 268 276 277 274 278 284 290 295 296 299 300 298 292 291 294 303 311 314 313 310 308 304 298 293 297 303 308 310 311 311 312 314 316 317 316 315 318 320 321 321 320 320 319 319 318 316 314
187 219 241 235 223 212 208 214 219 219 213 208 204 199 201 233 249 251 247 232 224 224 229 239 251 260 263 266 266 264 262 254 247 240 231 211 203 211 229 248 260 264 257 258 266 273 279 282 287 291 295 297 297 298 301 303 306 309 311 310 307 302 299 311 315 315 312 310 311 313 315 314 314 313 313 316 319 320 319 317 317 317 317 316 313 311
193 213 229 227 217 207 205 207 205 198 183 186 165 72 66 3 340 331 324 306 284 251 238 245 257 267 272 274 275 274 272 263 251 237 214 197 194 199 212 231 246 254 255 251 251 255 261 269 275 279 284 290 295 298 301 301 304 309 314 314 314 314 319 321 318 313 308 307 309 312 313 312 312 312 314 316 317 317 316 314 312 312 312 311 310 310
195 215 230 230 222 213 212 203 172 137 130 87 52 45 45 37 25 15 7 2 356 350 344 341 326 314 308 298 286 277 271 264 254 241 215 202 200 202 208 223 235 243 247 248 246 244 246 260 270 275 279 283 287 290 291 294 299 305 309 308 306 306 311 311 309 308 309 309 310 310 312 312 314 315 315 314 313 310 307 305 304 303 303 302 302 305
205 215 224 223 219 215 224 209 104 110 104 80 70 70 71 73 64 49 29 8 351 341 348 358 352 337 326 317 309 299 286 272 259 245 228 213 207 206 211 220 226 229 232 242 246 245 239 249 261 269 275 281 286 289 289 291 295 298 300 299 302 305 305 301 301 307 317 314 312 312 313 312 313 313 312 311 308 305 302 299 298 299 301 301 300 297
212 214 212 204 193 175 155 99 76 73 76 74 79 98 127 119 116 112 103 74 313 305 316 327 328 309 300 301 305 307 303 293 281 264 241 219 210 208 212 218 219 216 210 225 242 247 242 244 253 263 270 277 282 285 287 291 293 294 291 295 302 307 305 304 309 316 315 311 309 309 309 309 308 307 307 306 304 301 299 296 296 296 298 297 296 292
206 204 189 168 138 100 66 67 70 78 91 116 148 187 191 146 137 136 131 154 219 258 279 287 326 315 276 278 286 295 300 303 305 297 274 243 223 212 210 213 212 206 193 201 226 251 265 260 260 263 270 277 281 282 283 287 289 291 290 290 290 288 284 296 306 312 311 307 305 305 305 305 306 306 305 303 301 298 296 293 291 291 290 289 288 287
166 149 114 108 92 88 100 124 122 110 117 146 177 202 206 169 148 140 141 157 206 243 245 231 298 324 286 274 274 282 295 304 310 310 300 286 278 267 227 209 204 203 199 206 218 236 259 272 275 276 279 279 278 277 278 282 285 287 287 288 285 280 276 286 294 300 301 301 302 302 303 306 307 308 306 304 301 299 295 293 290 289 287 286 285 285
126 129 128 113 116 146 186 168 143 121 117 158 212 224 206 164 145 142 152 159 187 230 238 210 211 256 276 281 287 293 297 298 300 302 302 301 305 305 279 226 213 209 209 218 224 230 237 254 268 280 288 283 277 272 270 274 279 283 285 288 288 287 285 286 287 289 292 295 298 300 304 308 308 307 305 304 303 301 296 292 288 287 286 285 284 283
155 164 171 166 172 183 192 157 137 131 143 188 222 229 206 160 143 141 164 173 189 219 244 232 234 253 272 285 292 296 296 295 293 291 290 293 299 300 293 270 247 233 227 232 235 237 240 244 252 263 277 281 280 276 271 269 270 275 281 286 288 288 287 286 286 286 287 290 293 299 306 311 311 307 304 303 301 299 296 292 288 285 283 283 283 283
175 176 177 169 165 169 177 155 150 155 179 200 216 220 202 179 183 205 219 191 207 243 275 274 274 274 276 275 279 285 291 294 294 293 288 284 284 287 289 287 282 275 267 265 263 261 258 254 250 249 253 262 270 273 275 272 270 270 275 280 284 285 284 285 286 287 287 287 290 295 304 309 309 307 305 303 299 296 294 293 290 287 282 282 283 284
176 177 177 170 169 175 186 176 172 177 199 208 213 215 206 215 242 258 250 214 214 241 269 277 280 281 282 279 280 284 288 288 290 291 287 281 277 274 276 282 287 288 286 281 276 271 267 261 252 245 239 242 251 261 270 272 272 271 272 274 277 279 281 283 285 287 289 290 293 296 300 301 301 301 300 298 296 295 295 294 292 290 287 285 285 286
179 180 179 175 179 185 192 186 185 189 205 215 218 216 209 218 232 239 232 221 220 228 243 258 270 277 281 281 281 280 280 280 281 280 277 277 277 277 281 288 294 297 296 290 284 278 277 274 264 251 239 235 238 246 260 267 270 272 271 269 268 270 274 280 285 291 297 299 301 301 301 298 296 294 292 291 292 293 294 294 294 294 293 292 291 291
187 187 183 183 186 190 193 192 192 195 202 211 215 215 212 216 221 223 222 216 217 225 236 248 259 270 276 278 278 275 274 275 277 278 276 282 283 284 286 294 299 302 302 300 297 295 295 299 295 280 257 241 236 236 246 255 265 272 274 270 266 265 270 281 290 299 304 304 304 303 302 298 294 290 288 289 290 293 294 295 296 297 298 299 298 297